Charlottesville, VA

1:16 PM EDT on June 25, 2017 (GMT -0400)
Charlottesville-Albemarle

Weather History for KCHO - August, 2014

Change the Weather History Date:

Monday, August 18, 2014

  Actual Average Record
Temperature  
Mean Temperature 73 °F 74 °F  
Max Temperature 79 °F 85 °F 103 °F (1988)
Min Temperature 67 °F 63 °F 52 °F (1981)
Degree Days  
Heating Degree Days 0 0  
Month to date heating degree days 0 0  
Since 1 June heating degree days 2 12  
Since 1 July heating degree days 0 1  
Cooling Degree Days 8 9  
Month to date cooling degree days 122 174  
Year to date cooling degree days 815 804  
Since 1 June cooling degree days 699 718  
Growing Degree Days 22 (Base 50)    
Moisture  
Dew Point 68 °F    
Average Humidity 85    
Maximum Humidity 100    
Minimum Humidity 69    
Precipitation  
Precipitation T in 0.11 in 1.48 in (2013)
Month to date precipitation 1.35 2.37  
Year to date precipitation 25.52 26.89  
Sea Level Pressure  
Sea Level Pressure 29.86 in    
Wind  
Wind Speed 3 mph (NNE)    
Max Wind Speed 8 mph    
Max Gust Speed 10 mph    
Visibility 7 miles    
Events Rain    
T = Trace of Precipitation, MM = Missing Value Source: NWS Daily Summary

Daily Weather History Graph

Daily Weather History Graph

Search for Another Location

Airport or City:

Trip Planner

Search our weather history database for the weather conditions in past years. The results will help you decide how hot, cold, wet, or windy it might be!

Date:

Astronomy

Aug. 18, 2014 Rise Set
Actual Time 6:31 AM EDT 8:03 PM EDT
Civil Twilight 6:03 AM EDT 8:31 PM EDT
Nautical Twilight 5:29 AM EDT 9:04 PM EDT
Astronomical Twilight 4:54 AM EDT 9:39 PM EDT
Moon 12:38 AM EDT (8/18) 3:03 PM EDT (8/18)
Length of Visible Light 14h 27m
Length of Day
13h 31m
Last Quarter, 38% of the Moon is Illuminated
Aug 18
Last Quarter
Aug 25
New
Sep 2
First Quarter
Sep 8
Full
Sep 15
Last Quarter

Hourly Weather History & Observations

Time (EDT) Temp. Dew Point Humidity Pressure Visibility Wind Dir Wind Speed Gust Speed Precip Events Conditions
12:53 AM 69.1 °F 66.9 °F 93% 29.93 in 6.0 mi Calm Calm - N/A   Clear
1:53 AM 69.1 °F 66.9 °F 93% 29.91 in 6.0 mi SSE 3.5 mph - N/A   Clear
3:53 AM 68.0 °F 66.0 °F 93% 29.91 in 6.0 mi Calm Calm - N/A   Scattered Clouds
4:53 AM 68.0 °F 66.0 °F 93% 29.91 in 5.0 mi Calm Calm - N/A   Clear
5:53 AM 66.9 °F 66.0 °F 97% 29.91 in 3.0 mi NW 3.5 mph - N/A   Clear
6:53 AM 66.9 °F 64.9 °F 93% 29.92 in 3.0 mi NNW 3.5 mph - N/A   Clear
7:53 AM 68.0 °F 64.9 °F 90% 29.92 in 5.0 mi Calm Calm - N/A   Overcast
8:53 AM 70.0 °F 66.0 °F 87% 29.92 in 7.0 mi NNE 4.6 mph - N/A   Mostly Cloudy
9:53 AM 73.0 °F 64.9 °F 76% 29.92 in 10.0 mi NE 5.8 mph - N/A   Mostly Cloudy
10:53 AM 75.0 °F 64.9 °F 71% 29.91 in 10.0 mi NNE 4.6 mph - N/A   Clear
11:53 AM 75.9 °F 64.9 °F 69% 29.91 in 10.0 mi Calm Calm - N/A   Overcast
12:53 PM 75.9 °F 66.0 °F 71% 29.89 in 10.0 mi Calm Calm - N/A   Mostly Cloudy
1:53 PM 77.0 °F 66.9 °F 71% 29.88 in 10.0 mi Calm Calm - N/A   Mostly Cloudy
2:53 PM 75.9 °F 66.9 °F 74% 29.85 in 10.0 mi Calm Calm - 0.00 in Rain Light Rain
3:53 PM 77.0 °F 68.0 °F 74% 29.83 in 10.0 mi Calm Calm - 0.00 in   Overcast
4:17 PM 77.0 °F 68.0 °F 74% 29.84 in 10.0 mi Calm Calm - 0.00 in   Overcast
4:53 PM 78.1 °F 69.1 °F 74% 29.81 in 6.0 mi Variable 3.5 mph - 0.00 in   Haze
5:53 PM 78.1 °F 69.1 °F 74% 29.80 in 6.0 mi East 3.5 mph - N/A   Haze
6:53 PM 77.0 °F 70.0 °F 79% 29.79 in 6.0 mi NE 4.6 mph - N/A   Haze
7:49 PM 75.2 °F 69.8 °F 83% 29.81 in 6.0 mi Calm Calm - N/A   Haze
7:53 PM 75.9 °F 70.0 °F 82% 29.80 in 6.0 mi Calm Calm - N/A   Haze
8:24 PM 75.0 °F 70.0 °F 84% 29.82 in 6.0 mi Calm Calm - N/A   Haze
8:53 PM 73.9 °F 70.0 °F 87% 29.81 in 6.0 mi NNE 4.6 mph - N/A   Overcast
9:40 PM 73.0 °F 69.1 °F 87% 29.83 in 6.0 mi NE 4.6 mph - N/A   Overcast
9:50 PM 73.4 °F 69.8 °F 88% 29.83 in 6.0 mi North 3.5 mph - N/A   Overcast
9:53 PM 73.0 °F 69.1 °F 87% 29.81 in 6.0 mi North 3.5 mph - N/A   Overcast
10:24 PM 73.0 °F 69.1 °F 87% 29.83 in 9.0 mi North 3.5 mph - N/A   Mostly Cloudy
10:36 PM 73.0 °F 69.1 °F 87% 29.83 in 9.0 mi Calm Calm - N/A   Mostly Cloudy
10:53 PM 73.0 °F 69.1 °F 87% 29.81 in 8.0 mi North 3.5 mph - N/A   Overcast
11:18 PM 72.0 °F 69.1 °F 91% 29.82 in 8.0 mi North 3.5 mph - N/A   Overcast